Montpelier, VT

12:29 AM EDT on April 27, 2017 (GMT -0400)
Knapp State

Weather History for KMPV - September, 2013

Change the Weather History Date:

Friday, September 27, 2013

  Actual Average Record
Temperature  
Mean Temperature 54 °F 53 °F  
Max Temperature 65 °F 64 °F 80 °F (2007)
Min Temperature 43 °F 42 °F 26 °F (1965)
Degree Days  
Heating Degree Days 11 12  
Month to date heating degree days 260 207  
Since 1 July heating degree days 353 315  
Cooling Degree Days 0 0  
Month to date cooling degree days 29 16  
Year to date cooling degree days 323 260  
Growing Degree Days 5 (Base 50)    
Moisture  
Dew Point 47 °F    
Average Humidity 78    
Maximum Humidity 100    
Minimum Humidity 56    
Precipitation  
Precipitation 0.00 in 0.12 in 1.64 in (1985)
Month to date precipitation 4.32 2.78  
Year to date precipitation 29.61 27.58  
Sea Level Pressure  
Sea Level Pressure 30.30 in    
Wind  
Wind Speed 2 mph (NNW)    
Max Wind Speed 10 mph    
Max Gust Speed 12 mph    
Visibility 10 miles    
Events      
T = Trace of Precipitation, MM = Missing Value Source: NWS Daily Summary

Daily Weather History Graph

Daily Weather History Graph

Search for Another Location

Airport or City:

Trip Planner

Search our weather history database for the weather conditions in past years. The results will help you decide how hot, cold, wet, or windy it might be!

Date:

Astronomy

Sep. 27, 2013 Rise Set
Actual Time 6:43 AM EDT 6:37 PM EDT
Civil Twilight 6:14 AM EDT 7:06 PM EDT
Nautical Twilight 5:40 AM EDT 7:40 PM EDT
Astronomical Twilight 5:06 AM EDT 8:14 PM EDT
Moon No Moon Rise 2:25 PM EDT
Length of Visible Light 12h 52m
Length of Day
11h 54m
Last Quarter, 45% of the Moon is Illuminated
Sep 27
Last Quarter
Oct 4
New
Oct 11
First Quarter
Oct 18
Full
Oct 26
Last Quarter

Hourly Weather History & Observations

Time (EDT) Temp. Dew Point Humidity Pressure Visibility Wind Dir Wind Speed Gust Speed Precip Events Conditions
12:51 AM 52.0 °F 46.0 °F 80% 30.23 in 10.0 mi NNE 3.5 mph - N/A   Overcast
1:51 AM 52.0 °F 46.0 °F 80% 30.23 in 10.0 mi NNE 3.5 mph - N/A   Overcast
2:51 AM 52.0 °F 46.0 °F 80% 30.23 in 10.0 mi Calm Calm - N/A   Overcast
3:51 AM 52.0 °F 46.9 °F 83% 30.23 in 10.0 mi Calm Calm - N/A   Overcast
4:51 AM 51.1 °F 46.0 °F 83% 30.25 in 10.0 mi Calm Calm - N/A   Overcast
5:51 AM 51.1 °F 46.9 °F 86% 30.26 in 10.0 mi Calm Calm - N/A   Overcast
6:07 AM 51.8 °F 46.4 °F 82% 30.25 in 10.0 mi NNE 4.6 mph - N/A   Overcast
6:51 AM 51.1 °F 46.0 °F 83% 30.29 in 10.0 mi ENE 3.5 mph - N/A   Overcast
7:51 AM 51.1 °F 46.9 °F 86% 30.30 in 10.0 mi Calm Calm - N/A   Overcast
8:51 AM 51.1 °F 46.0 °F 83% 30.32 in 10.0 mi Calm Calm - N/A   Overcast
9:01 AM 51.8 °F 46.4 °F 82% 30.30 in 10.0 mi Calm Calm - N/A   Overcast
9:51 AM 52.0 °F 46.0 °F 80% 30.33 in 10.0 mi Calm Calm - N/A   Overcast
10:51 AM 54.0 °F 46.9 °F 77% 30.33 in 10.0 mi Variable 3.5 mph - N/A   Overcast
10:58 AM 53.6 °F 48.2 °F 82% 30.32 in 10.0 mi Variable 4.6 mph - N/A   Overcast
11:51 AM 55.9 °F 46.9 °F 72% 30.33 in 10.0 mi Calm Calm - N/A   Overcast
12:51 PM 57.9 °F 46.9 °F 67% 30.32 in 10.0 mi West 3.5 mph - N/A   Mostly Cloudy
1:01 PM 57.2 °F 48.2 °F 72% 30.30 in 10.0 mi Variable 6.9 mph - N/A   Mostly Cloudy
1:23 PM 59.0 °F 48.2 °F 67% 30.29 in 10.0 mi NNW 5.8 mph - N/A   Partly Cloudy
1:51 PM 60.1 °F 46.9 °F 62% 30.30 in 10.0 mi Calm Calm - N/A   Partly Cloudy
2:51 PM 62.1 °F 48.0 °F 60% 30.29 in 10.0 mi WNW 3.5 mph - N/A   Partly Cloudy
3:51 PM 63.0 °F 48.0 °F 58% 30.27 in 10.0 mi Variable 3.5 mph - N/A   Clear
4:51 PM 64.9 °F 48.0 °F 54% 30.28 in 10.0 mi NW 3.5 mph - N/A   Scattered Clouds
5:51 PM 60.1 °F 51.1 °F 72% 30.29 in 10.0 mi NNW 4.6 mph - N/A   Overcast
6:51 PM 57.0 °F 50.0 °F 77% 30.30 in 10.0 mi West 3.5 mph - N/A   Partly Cloudy
7:51 PM 55.0 °F 50.0 °F 83% 30.32 in 10.0 mi West 3.5 mph - N/A   Clear
8:51 PM 52.0 °F 48.9 °F 89% 30.34 in 10.0 mi Calm Calm - N/A   Clear
9:51 PM 48.0 °F 46.0 °F 93% 30.35 in 10.0 mi Calm Calm - N/A   Clear
10:51 PM 46.9 °F 46.0 °F 97% 30.36 in 10.0 mi Calm Calm - N/A   Clear
11:51 PM 46.0 °F 45.0 °F 96% 30.37 in 10.0 mi Calm Calm - N/A   Clear